Location: Pedholt
(56.0260°N, 10.2097°E)
Time: 01:35:15
(UTC+00:00)

Meteor 2-4 Rocket - Pass Details

Date: 14 July 2020
Orbit: 800 x 908 km, 81.2° (Epoch: 06 August)

Event Time Altitude Azimuth Distance (km) Brightness Sun altitude
Rises 00:10:58 0° 345° (NNW) 3,549 8.2 -11.7°
Reaches altitude 10° 00:13:30 10° 350° (N) 2,607 7.5 -11.7°
Maximum altitude 00:19:23 59° 69° (ENE) 1,050 4.4 -11.5°
Drops below altitude 10° 00:25:12 10° 149° (SSE) 2,571 5.8 -11.3°
Enters shadow 00:26:30 - 152° (SSE) 3,055 6.2 -11.3°
